User: anonymous   Login
Location: Deep South Regional Star Gaze
(30.9929°N, 90.9586°W)
Time: 08:50:07
(UTC-05:00)
Language:

H-2A R/B - Orbit

View from above orbital plane
View from above orbital plane
View from above satellite
View from above satellite

Ground track
Ground track

The orbit data is extracted from the following two-line orbital elements,

1 26899U 01038B   17172.99245220 +.00000652 +00000-0 +26772-3 0  9997
2 26899 028.3449 062.7484 7122513 192.1159 131.1619 02.48047977136635
Epoch (UTC): 21 June 2017 23:49:07
Eccentricity: 0.7122513
inclination: 28.3449°
perigee height: 255 km
apogee height: 33092 km
right ascension of ascending node: 62.7484°
argument of perigee: 192.1159°
revolutions per day: 2.48047977
mean anomaly at epoch: 131.1619°
orbit number at epoch: 13663

The dashed part of the orbit path shows where the satellite is in the earth's shadow,  

DLR